RH
32 11 11 8 6 6 6 6 6 5 4 4 4 4 4 4 4 4 4 4 3 3 5 5 6 8 8 10 20 26 30 32 34 36 22 20 12 14 13 12 18 18 26 29 40
35 12 10 8 7 6 5 6 6 5 5 4 4 4 4 4 4 4 4 4 4 3 4 5 6 8 8 10 20 28 45 16 19 22 17 15 15 16 15 17 16 22 27 32 55
14 10 10 9 8 6 5 5 5 5 5 4 4 4 4 4 4 4 4 4 5 4 3 4 6 7 7 9 20 18 21 14 15 16 13 14 18 25 18 18 19 37 37 38 46
11 10 9 9 8 7 6 5 5 5 5 4 4 4 4 4 4 4 4 4 4 5 4 4 4 6 7 8 12 18 12 12 10 11 16 28 22 28 20 19 18 28 48 48 38
11 10 10 9 9 9 9 7 6 5 5 4 4 4 4 4 4 4 4 4 4 5 4 5 6 6 8 9 11 13 11 10 8 11 26 33 40 29 19 18 21 23 40 47 44
10 10 10 10 10 10 9 9 8 6 6 5 5 4 4 4 4 4 4 4 4 5 5 4 7 7 8 10 11 9 10 8 8 13 24 26 29 29 22 20 23 27 23 30 40
16 10 10 9 10 10 10 9 9 9 8 7 6 5 5 5 5 5 5 5 5 4 4 4 7 6 8 9 9 8 10 9 9 12 15 23 23 29 22 19 19 27 19 20 24
15 16 11 9 9 10 10 10 10 10 9 9 8 7 6 6 6 6 6 6 5 4 4 4 7 6 6 8 8 9 9 15 10 11 13 16 44 16 17 16 17 25 22 13 11
16 15 16 15 11 10 11 11 11 10 10 9 9 8 8 7 7 7 7 6 6 4 4 4 6 7 6 6 7 7 22 10 10 11 11 13 14 14 17 16 16 18 24 17 11
23 15 15 15 16 14 13 12 12 11 11 10 9 9 8 8 8 7 7 7 6 5 4 4 4 7 8 7 12 8 7 9 10 11 10 10 12 12 14 15 17 18 20 11 10
33 23 20 14 14 13 13 12 12 11 10 10 10 9 9 8 8 7 7 7 6 6 5 4 4 5 6 8 8 7 7 7 9 10 10 10 11 12 14 14 16 11 10 11 18
34 37 30 22 17 14 13 12 11 11 10 10 10 9 9 9 8 8 8 7 7 6 5 5 5 4 6 8 8 8 7 6 8 10 10 10 11 14 14 16 16 11 12 26 31
22 26 32 36 24 20 14 15 12 11 10 10 10 9 9 9 8 9 9 9 8 7 6 6 6 6 8 9 10 11 11 10 10 9 9 10 15 14 14 15 16 13 17 46 52
21 23 25 28 35 24 18 16 16 13 12 11 11 10 9 9 9 9 9 10 11 8 7 8 8 9 10 11 10 10 11 11 10 10 27 13 24 23 15 16 15 13 15 37 36
26 27 30 27 26 30 19 14 17 15 14 12 11 11 10 10 10 10 10 10 12 13 10 8 9 10 10 10 10 10 12 13 13 13 13 14 13 44 16 16 16 15 16 19 33
33 28 30 26 24 24 20 13 17 17 14 13 11 11 11 12 15 14 13 14 13 13 13 14 14 12 12 12 12 12 12 13 13 14 16 28 16 31 28 16 16 19 18 16 26
27 23 22 16 12 9 10 11 14 16 14 14 12 11 12 14 19 19 19 21 20 18 17 14 12 13 14 14 14 15 16 27 37 38 42 22 16 16 16 16 18 22 20 18 19
38 24 21 17 15 17 10 11 13 14 14 18 16 13 13 15 16 20 20 21 20 21 22 22 21 16 16 14 15 16 17 27 58 48 50 24 16 33 17 18 22 24 20 16 20
26 35 24 25 25 26 27 18 14 14 15 18 19 16 20 20 21 25 28 29 28 27 27 26 28 24 22 20 19 18 17 18 21 22 20 46 42 23 20 28 28 25 22 19 28
50 22 34 33 39 36 25 31 20 31 31 24 23 20 25 30 31 31 32 30 30 29 30 30 31 28 26 25 22 20 20 22 19 51 66 57 35 58 34 36 31 26 22 24 32
60 60 18 33 36 37 38 35 25 33 33 32 29 22 25 34 34 32 31 29 31 32 33 33 32 30 27 25 24 20 18 19 34 55 59 59 63 63 42 37 29 29 27 37 53
51 65 71 22 16 31 31 33 41 38 37 33 33 30 31 34 33 32 30 28 28 31 32 31 31 28 28 25 24 22 19 20 54 70 64 42 61 67 56 44 33 35 30 31 56
38 42 62 70 54 8 19 22 27 43 47 37 30 29 33 33 32 30 28 26 25 27 28 29 29 33 37 29 23 20 18 20 22 24 55 69 66 71 60 60 40 59 61 62 65
39 38 33 57 66 70 14 16 21 41 48 42 27 30 32 31 29 26 25 25 24 23 26 32 31 32 55 66 65 34 26 26 28 66 72 76 76 44 53 53 48 53 67 61 64
26 35 34 26 43 61 68 22 15 30 42 40 36 27 29 30 28 26 25 26 25 25 26 30 32 36 35 40 44 56 76 43 41 48 75 76 94 87 49 44 51 63 65 74 68
8 21 33 31 23 31 56 66 53 16 20 27 33 30 30 31 31 29 28 28 29 28 26 24 31 37 38 37 40 43 50 56 60 79 64 75 69 69 51 48 40 47 69 78 70
6 6 16 28 30 23 23 48 62 61 37 18 19 21 22 22 25 29 35 34 34 31 28 28 32 33 52 52 37 40 42 72 71 71 63 82 89 75 73 75 72 59 62 79 77
Wind_Speed
18 18 18 18 16 16 16 16 16 17 17 16 15 15 13 11 9 7 6 7 10 9 7 7 8 11 12 11 12 10 14 14 12 9 8 10 10 10 11 14 15 13 15 17 20
21 20 19 18 19 17 16 17 17 17 17 16 15 14 11 9 7 5 3 4 7 8 6 6 7 9 10 9 12 11 12 12 11 9 8 8 8 8 11 13 14 13 16 20 24
22 21 20 19 18 17 18 18 18 17 17 16 15 13 11 8 6 5 3 2 3 6 5 5 5 6 7 8 11 11 10 9 8 7 7 6 7 9 10 12 13 12 16 19 23
23 22 22 21 20 20 19 19 18 18 18 16 15 14 12 10 8 6 5 4 3 2 4 4 4 5 6 7 11 12 8 6 6 5 6 6 5 6 7 10 13 13 15 18 20
25 25 23 22 21 18 18 19 18 18 18 17 16 15 13 13 10 9 8 7 6 4 3 4 4 5 6 6 9 9 5 4 5 4 7 10 5 6 8 11 13 11 13 16 18
27 27 25 24 23 22 21 19 18 17 18 17 17 16 15 14 13 11 10 9 9 7 5 4 5 6 6 6 7 5 3 3 4 5 7 9 10 8 11 13 12 10 13 16 17
30 28 27 25 25 23 21 20 20 19 18 17 17 16 16 16 14 13 12 10 10 9 8 8 7 8 8 7 6 5 3 0 2 5 7 8 10 11 15 15 15 9 13 16 18
34 32 29 27 26 24 23 22 20 19 19 18 17 17 17 16 15 13 13 12 11 10 10 11 10 10 8 8 6 5 5 3 2 3 5 6 7 11 12 13 16 12 13 17 20
35 34 34 30 29 27 25 24 21 21 20 19 20 18 18 17 15 14 14 14 12 11 12 13 13 11 10 8 6 7 7 6 4 3 6 8 10 11 11 13 15 18 18 19 21
35 34 35 35 34 30 27 26 24 23 22 22 21 21 20 18 17 16 16 15 14 13 12 14 15 14 13 10 10 10 8 9 7 5 7 11 11 14 14 14 15 18 20 20 21
37 36 35 35 35 33 30 28 27 26 25 24 23 23 21 21 19 18 17 16 15 14 14 14 17 19 16 12 11 10 11 13 10 6 9 13 15 14 15 16 16 19 19 20 19
41 39 37 35 34 34 31 29 28 27 26 25 25 23 23 22 21 19 19 17 18 17 17 16 19 18 14 14 13 12 12 15 13 9 8 13 15 17 18 18 18 20 20 16 15
42 42 40 38 35 33 33 31 29 27 26 26 25 25 24 24 22 19 19 19 18 18 18 19 19 16 14 14 14 13 15 15 15 11 10 12 15 15 19 20 19 18 15 12 12
35 38 38 38 37 34 33 34 30 27 27 28 27 27 26 25 24 21 21 20 18 20 19 19 19 18 16 15 15 16 16 14 12 11 10 11 9 21 17 19 18 17 14 13 18
26 31 33 34 35 34 34 35 32 28 29 30 29 27 25 26 22 22 22 20 21 19 18 21 20 20 18 18 17 18 16 14 13 14 14 16 16 14 17 19 19 19 17 17 17
24 26 28 29 32 34 36 35 34 32 34 30 28 28 26 25 25 23 22 21 20 18 20 20 20 20 20 18 18 16 17 15 15 16 16 18 18 14 16 20 19 18 19 17 20
24 26 26 27 27 31 34 35 36 36 32 29 28 28 28 27 25 26 24 22 21 19 19 20 21 22 22 21 19 17 15 13 14 15 14 21 21 18 22 21 19 17 18 16 18
27 28 27 27 27 27 30 32 36 35 34 29 27 27 28 28 28 26 25 23 21 20 20 19 20 22 21 20 22 21 20 18 13 13 14 24 23 19 20 21 18 16 17 15 13
32 31 30 29 30 29 30 31 33 34 32 32 28 27 27 28 28 27 25 22 22 21 21 21 23 21 21 21 23 25 24 23 23 24 25 16 21 18 18 16 17 14 15 14 11
32 36 35 34 32 32 35 33 32 29 27 27 30 27 30 29 28 27 25 23 22 23 23 25 24 25 23 22 23 24 26 23 25 18 17 16 16 9 17 17 16 14 17 14 12
31 34 37 40 39 38 36 37 35 33 30 32 30 32 33 31 29 26 27 25 25 25 25 23 22 27 23 21 23 21 24 24 22 22 15 13 12 19 16 14 16 14 13 11 12
29 32 34 37 42 42 41 38 36 40 39 35 35 34 35 32 30 29 28 29 27 26 25 24 23 20 20 25 20 19 21 24 21 17 18 20 15 24 16 12 15 13 12 12 10
32 31 33 35 38 39 41 40 40 38 42 39 37 35 34 33 31 28 30 31 30 29 27 24 21 15 14 22 22 17 16 19 23 23 20 14 11 22 15 15 17 14 13 14 12
34 34 34 36 35 36 35 39 40 39 41 40 37 36 35 34 31 31 33 33 31 30 28 25 23 18 14 17 16 15 15 16 19 18 14 16 16 18 17 17 16 15 13 13 12
36 36 36 36 37 37 36 37 39 38 41 40 39 39 38 36 34 35 36 33 31 30 30 28 26 21 19 23 22 17 15 16 14 14 19 11 18 11 18 14 11 10 15 12 14
36 38 38 38 36 38 39 39 38 39 39 41 42 40 38 37 38 38 34 33 33 28 30 30 29 25 21 23 24 25 23 21 19 19 21 22 25 28 25 22 16 13 13 14 14
36 37 39 39 39 38 40 40 41 39 40 42 41 40 40 42 38 36 35 34 32 28 27 28 28 26 20 26 27 27 26 20 20 21 21 18 20 23 23 23 24 22 20 14 15
Wind_Direction
225 221 213 207 206 200 197 190 186 181 173 169 163 162 157 151 141 127 119 105 101 110 118 111 115 107 104 96 93 95 97 81 68 62 47 31 35 23 1 3 8 23 10 9 7
221 223 216 209 203 202 197 197 190 186 181 177 175 171 164 161 147 148 142 107 101 109 127 123 127 124 119 112 100 110 112 98 79 81 74 60 33 10 3 9 12 13 3 6 15
217 217 217 213 207 204 205 205 196 190 189 182 183 176 175 176 171 181 185 176 116 110 119 121 140 145 138 134 125 136 137 118 87 91 75 51 13 358 8 9 13 20 11 9 20
217 216 217 214 205 202 208 207 203 200 199 192 194 189 188 197 196 203 222 223 206 148 125 120 140 144 151 148 151 152 152 133 108 89 64 32 342 344 351 359 0 3 7 4 17
218 216 215 214 212 211 208 206 206 207 207 204 205 207 205 210 212 218 229 230 227 204 175 142 152 157 159 163 159 154 165 130 100 74 50 23 1 302 336 337 353 357 357 353 358
223 219 216 216 213 210 211 216 207 209 210 211 211 214 215 219 221 224 227 228 231 215 201 187 176 172 172 171 170 166 171 109 97 62 43 33 20 347 339 328 349 1 346 342 344
225 224 221 216 218 214 215 214 215 212 212 214 213 217 217 220 221 221 225 225 227 218 206 194 192 181 180 170 179 196 198 205 36 26 22 25 5 360 342 327 330 359 334 331 339
226 228 226 221 220 218 217 218 219 220 219 219 218 218 220 220 220 219 222 222 227 222 211 206 201 202 195 200 197 225 251 252 279 341 5 7 338 355 348 339 319 336 329 325 338
227 227 231 229 227 221 221 225 223 224 222 224 225 223 224 224 220 219 220 221 220 221 215 210 210 211 211 214 219 234 239 263 266 324 343 332 333 344 350 339 324 325 320 326 337
230 228 229 231 231 230 227 228 227 227 229 226 228 227 227 227 224 223 221 223 223 222 220 215 215 219 222 222 225 240 255 267 262 302 318 314 321 334 341 332 322 316 316 332 334
230 230 228 229 230 231 231 232 230 229 229 229 228 230 226 228 226 224 225 225 226 225 225 217 215 222 223 227 233 238 246 255 256 272 293 305 315 327 331 327 323 321 328 339 339
233 232 231 230 229 229 228 231 232 231 229 229 229 228 227 226 225 223 226 223 224 223 223 216 220 230 227 230 235 235 244 254 267 277 290 297 309 322 327 325 328 325 338 356 353
233 233 232 232 231 230 228 227 229 230 229 229 228 228 225 224 225 220 222 224 223 226 224 220 230 231 227 230 235 238 244 253 265 275 282 295 310 321 326 324 325 324 343 2 355
230 233 232 231 230 228 227 226 225 226 226 226 224 226 222 223 223 222 224 223 223 222 222 224 227 233 229 235 243 250 249 252 262 271 275 287 288 303 320 316 320 318 334 327 325
225 227 227 229 228 226 225 224 220 219 222 222 219 223 220 220 222 221 223 223 222 225 224 225 229 235 239 239 242 248 250 251 259 267 271 280 285 293 310 309 312 314 321 316 315
225 225 225 224 223 222 223 221 217 217 221 221 221 220 219 216 216 219 219 221 225 226 231 232 231 232 236 235 237 243 249 255 260 266 272 274 288 300 299 306 307 306 308 309 309
224 225 221 222 220 218 219 217 217 217 215 217 219 216 219 218 218 223 226 229 232 233 235 237 236 236 239 241 241 244 250 261 269 277 280 280 291 296 299 299 303 297 296 300 300
225 224 220 218 216 214 215 215 216 215 214 215 218 218 218 217 220 222 226 230 235 237 241 240 248 243 244 244 248 247 247 244 264 267 270 289 292 298 303 306 308 295 292 301 305
226 224 221 215 215 215 213 214 212 213 215 217 215 213 217 216 218 221 225 228 230 235 238 242 247 250 251 251 255 257 256 257 261 268 274 276 289 306 304 313 312 298 292 299 303
225 225 223 221 220 221 219 219 214 214 214 213 213 216 212 213 216 220 225 228 231 235 239 245 254 254 255 258 258 259 259 260 261 249 267 274 286 277 305 317 311 294 294 299 302
224 224 224 226 226 227 226 228 223 224 221 221 218 213 218 220 220 223 227 232 236 238 240 245 246 259 258 254 257 256 255 249 242 244 245 268 291 275 301 315 314 301 309 303 294
227 225 223 225 228 229 229 231 227 227 227 224 223 222 221 222 225 228 235 239 244 242 244 245 242 247 254 256 251 250 252 254 246 272 266 245 243 270 284 308 314 312 313 316 306
228 226 224 224 228 227 228 228 227 230 224 224 225 224 225 225 226 232 240 246 249 245 245 242 235 237 251 261 259 253 255 252 249 248 244 252 266 272 270 294 300 305 323 317 307
227 227 225 225 227 227 225 226 225 223 218 223 226 226 229 231 230 233 240 246 248 245 240 238 239 232 215 233 239 260 251 249 247 244 255 268 253 274 276 284 286 290 306 306 303
227 226 226 226 224 225 224 225 225 220 221 226 225 225 229 231 233 237 241 242 242 243 239 235 236 236 240 240 244 240 256 259 250 240 236 245 263 278 272 273 279 300 285 286 300
228 226 225 226 224 224 222 223 225 223 223 225 226 226 228 230 231 235 237 235 237 237 236 234 230 227 233 239 240 239 240 245 255 247 263 261 267 275 286 293 293 291 311 276 292
228 227 226 225 225 224 223 221 223 224 222 225 226 225 226 229 229 231 232 236 239 237 233 233 233 230 225 238 230 233 235 238 239 245 250 255 263 266 277 278 284 290 301 282 280